Thu, 17 Jun 2021 03:41:13 UTC

Information for RPM lzo-2.08-9.fc26.i686.rpm

ID9060663
Namelzo
Version2.08
Release9.fc26
Epoch
Archi686
SummaryData compression library with very fast (de)compression
DescriptionLZO is a portable lossless data compression library written in ANSI C. It offers pretty fast compression and very fast decompression. Decompression requires no memory. In addition there are slower compression levels achieving a quite competitive compression ratio while still decompressing at this very high speed.
Build Time2017-02-11 05:16:49 GMT
Size74,942
4d032e8a82b45fd66eca04ace5fe58d2
LicenseGPLv2+
Buildrootf26-build-7622223-694373
Provides
liblzo2.so.2
lzo = 2.08-9.fc26
lzo(x86-32) = 2.08-9.fc26
Obsoletes No Obsoletes
Conflicts No Conflicts
Requires
/sbin/ldconfig
/sbin/ldconfig
libc.so.6
libc.so.6(GLIBC_2.0)
libc.so.6(GLIBC_2.1.3)
libc.so.6(GLIBC_2.4)
rpmlib(CompressedFileNames) <= 3.0.4-1
rpmlib(FileDigests) <= 4.6.0-1
rpmlib(PayloadFilesHavePrefix) <= 4.0-1
rpmlib(PayloadIsXz) <= 5.2-1
rtld(GNU_HASH)
Recommends No Recommends
Suggests No Suggests
Supplements No Supplements
Enhances No Enhances
Files
1 through 8 of 8
Name descending sort Size
/usr/share/licenses/lzo/COPYING18,092
/usr/share/licenses/lzo4,096
/usr/share/doc/lzo/THANKS690
/usr/share/doc/lzo/NEWS12,279
/usr/share/doc/lzo/AUTHORS112
/usr/share/doc/lzo4,096
/usr/lib/liblzo2.so.2.0.0142,372
/usr/lib/liblzo2.so.216
Component of
Page:
1 through 50 of 231041 >>>
Buildroot descending sort Created State
f26-kde-12722477-918934 2018-06-14 01:26:15 expired
f26-build-12570044-918933 2018-05-29 14:07:04 expired
f26-build-12569895-918933 2018-05-29 13:45:50 expired
f26-build-12569838-918933 2018-05-29 13:24:39 expired
f26-build-12569823-918933 2018-05-29 13:19:50 expired
f26-build-12569811-918933 2018-05-29 13:18:18 expired
f26-build-12569668-918933 2018-05-29 12:59:11 expired
f26-build-12569537-918933 2018-05-29 12:43:00 expired
f26-build-12569470-918933 2018-05-29 12:34:55 expired
f26-build-12569396-918933 2018-05-29 12:24:52 expired
f26-build-12569323-918933 2018-05-29 12:11:27 expired
f26-build-12569264-918933 2018-05-29 12:03:13 expired
f26-build-12569208-918933 2018-05-29 11:49:00 expired
f26-build-12569112-918933 2018-05-29 11:34:42 expired
f26-build-12569059-918933 2018-05-29 11:27:49 expired
f26-build-12568864-918933 2018-05-29 11:03:56 expired
f26-build-12568680-918933 2018-05-29 10:41:39 expired
f26-build-12568497-918494 2018-05-29 10:23:12 expired
f26-build-12568442-918494 2018-05-29 10:18:36 expired
f26-build-12568264-918494 2018-05-29 10:02:55 expired
f26-build-12568084-918494 2018-05-29 09:33:27 expired
f26-build-12560605-918494 2018-05-28 21:16:24 expired
f26-build-12560480-918494 2018-05-28 19:47:50 expired
f26-build-12560470-918494 2018-05-28 19:35:41 expired
f26-build-12559121-917680 2018-05-28 13:38:03 expired
f26-build-12559059-917680 2018-05-28 13:20:12 expired
f26-build-12559037-917680 2018-05-28 13:08:00 expired
f26-build-12558860-917680 2018-05-28 12:35:25 expired
f26-build-12558441-917680 2018-05-28 10:46:20 expired
f26-build-12557870-917680 2018-05-28 09:20:15 expired
f26-build-12557758-917680 2018-05-28 09:06:52 expired
f26-build-12557265-917680 2018-05-28 08:17:38 expired
f26-build-12535235-917328 2018-05-26 21:55:14 expired
f26-build-12534871-917328 2018-05-26 21:40:16 expired
f26-build-12527548-916849 2018-05-26 04:44:41 expired
f26-build-12526408-916849 2018-05-26 01:14:55 expired
f26-build-12525710-916615 2018-05-25 22:20:32 expired
f26-build-12524712-916615 2018-05-25 18:44:48 expired
f26-build-12523634-916615 2018-05-25 15:31:02 expired
f26-build-12523425-916615 2018-05-25 14:25:24 expired
f26-build-12523377-915740 2018-05-25 14:02:49 expired
f26-build-12523335-915740 2018-05-25 13:52:55 expired
f26-build-12523295-915740 2018-05-25 13:34:19 expired
f26-build-12523155-915740 2018-05-25 11:46:04 expired
f26-build-12522978-915740 2018-05-25 11:04:46 expired
f26-build-12522968-915740 2018-05-25 11:03:21 expired
f26-build-12522817-915740 2018-05-25 10:33:39 expired
f26-build-12522775-915740 2018-05-25 10:27:21 expired
f26-build-12522214-915740 2018-05-25 08:29:20 expired
f26-build-12515681-915740 2018-05-24 17:47:14 expired